Location: Kellogg
(38.0159°N, 90.0546°W)
Time: 07:42:33
(UTC+00:00)

Vanguard 1 Rocket - Pass Details

Date: 18 September 2024
Orbit: 650 x 4218 km, 34.3° (Epoch: 05 October)

Event Time Altitude Azimuth Distance (km) Brightness Sun altitude
Rises 06:35:09 0° 200° (SSW) 4,235 - -49.2°
Reaches altitude 10° 06:38:02 10° 188° (S) 3,636 - -49.1°
Maximum altitude 06:46:09 29° 132° (SE) 3,394 - -48.6°
Exits shadow 06:49:28 26° 112° (ESE) 3,892 10.4 -48.3°
Drops below altitude 10° 06:59:30 10° 82° (E) 6,119 11.8 -47.6°
Sets 07:06:18 0° 74° (ENE) 7,698 12.5 -47.0°
